User: anonymous   Login
Location: Peterborough
(44.3091°N, 78.3197°W)
Time: 16:30:24
(UTC-04:00)
Language:

Altair - Orbit

View from above orbital plane
View from above orbital plane
View from above satellite
View from above satellite

Ground track
Ground track

The orbit data is extracted from the following two-line orbital elements,

1 00050U 60009B   24197.39185163 -.00000088  00000-0 -11235-4 0  9993
2 00050  47.2278 180.0308 0112628  83.1049 278.2538 12.20141783852012
Epoch (UTC): 15 July 2024 09:24:15
Eccentricity: 0.0112628
inclination: 47.2278°
perigee height: 1502 km
apogee height: 1681 km
right ascension of ascending node: 180.0308°
argument of perigee: 83.1049°
revolutions per day: 12.20141783
mean anomaly at epoch: 278.2538°
orbit number at epoch: 85201

The dashed part of the orbit path shows where the satellite is in the earth's shadow,  

DLR